Flag for Norway Weather past 2 weeks in Jessheim, Norway

Now
48 °F

Clear.


Feels Like: 46 °F
Forecast: 48 / 66 °F
Wind: 6 mph from Southwest

Location: Oslo Gardermoen Airport

Current Time: Aug 28, 2015 at 7:31:12 AM

Latest Report: Aug 28, 2015 at 5:50 AM


Visibility: 10 mi

Pressure: 29.56 "Hg

Humidity: 94%

Dew point: 46 °F

Location of JessheimLocation

Historic Weather in Jessheim — Graph

°F

Jessheim temperature yesterday

Maximum temperature yesterday: 63 °F (at 4:50 PM)
Minimum temperature yesterday: 52 °F (at 9:20 PM)
Average temperature yesterday: 58 °F

Past Weeks' High & Low Weather Summary

 TemperatureHumidityPressure
High75 °F (Aug 23, 3:50 PM)100% (Aug 26, 7:50 PM)30.36 "Hg (Aug 26, 7:50 PM)
Low43 °F (Aug 13, 5:20 AM)29% (Aug 14, 8:20 PM)29.47 "Hg (Aug 27, 5:50 PM)
Average60 °F67%30.09 "Hg
* Reported Aug 13 5:20 AM — Aug 28 5:50 AM, Jessheim, Weather by CustomWeather, © 2015

Note: Actual official high and low records may vary slightly from our data, if they occured in-between our weather recording intervals... More about our weather records

Advertising

Jessheim weather history for previous 24 hours

 ConditionsComfort  
Time TempWeatherWind HumidityBarometerVisibility
5:50 AM
Fri, Aug 28
48 °FClear.6 mph94%29.56 "Hg10 mi
4:50 AM48 °FClear.5 mph94%29.56 "Hg10 mi
4:20 AM48 °FPassing clouds.3 mph94%29.56 "HgN/A
3:50 AM50 °FClear.6 mph94%29.56 "Hg10 mi
3:20 AM50 °FPassing clouds.5 mph94%29.53 "HgN/A
2:50 AM50 °FClear.10 mph94%29.53 "Hg10 mi
2:20 AM50 °FClear.6 mph94%29.53 "Hg10 mi
1:50 AM50 °FClear.7 mph100%29.53 "Hg10 mi
1:20 AM50 °FPassing clouds.7 mph94%29.53 "HgN/A
12:50 AM52 °FPartly cloudy.8 mph94%29.53 "HgN/A
11:50 PM
Thu, Aug 27
52 °FPartly cloudy.5 mph94%29.53 "HgN/A
11:20 PM52 °FPassing clouds.3 mph94%29.53 "HgN/A
10:50 PM52 °FPassing clouds.3 mph88%29.50 "HgN/A
10:20 PM52 °FPassing clouds.6 mph94%29.50 "HgN/A
9:50 PM52 °FPassing clouds.9 mph94%29.50 "HgN/A
9:20 PM52 °FScattered clouds.14 mph94%29.50 "HgN/A
8:50 PM54 °FScattered clouds.9 mph88%29.50 "HgN/A
8:20 PM54 °FScattered showers. Scattered clouds.6 mph88%29.47 "HgN/A
7:50 PM55 °FSprinkles. Broken clouds.12 mph82%29.50 "HgN/A
7:20 PM59 °FRain showers. Partly sunny.14 mph88%29.47 "HgN/A
6:50 PM61 °FSprinkles. Partly sunny.13 mph83%29.47 "HgN/A
6:20 PM61 °FLight rain. Broken clouds.9 mph88%29.47 "HgN/A
5:50 PM63 °FPartly sunny.9 mph83%29.47 "HgN/A
5:20 PM61 °FPartly sunny.8 mph83%29.50 "HgN/A
4:50 PM63 °FPartly sunny.7 mph83%29.50 "HgN/A
4:20 PM61 °FPartly sunny.5 mph88%29.50 "HgN/A
3:50 PM59 °FBroken clouds.3 mph88%29.50 "HgN/A
3:20 PM57 °FLight rain. Partly sunny.1 mph88%29.53 "HgN/A
2:50 PM57 °FRain. Partly sunny.1 mph82%29.53 "Hg4 mi
2:20 PM59 °FLight rain. Broken clouds.No wind82%29.53 "Hg6 mi
1:50 PM59 °FRain. Partly sunny.2 mph82%29.53 "Hg2 mi
1:20 PM59 °FRain. Broken clouds.5 mph94%29.56 "Hg3 mi
12:50 PM59 °FRain. Broken clouds.6 mph94%29.56 "Hg2 mi
12:20 PM59 °FRain. Broken clouds.7 mph94%29.56 "Hg5 mi
11:50 AM59 °FRain. Partly sunny.8 mph94%29.56 "Hg5 mi
11:20 AM61 °FScattered showers. Partly sunny.10 mph88%29.59 "HgN/A
10:50 AM59 °FScattered showers. Partly sunny.9 mph88%29.59 "HgN/A
10:20 AM59 °FBroken clouds.8 mph88%29.59 "HgN/A
9:50 AM59 °FPartly sunny.9 mph88%29.59 "HgN/A
9:20 AM59 °FBroken clouds.9 mph88%29.59 "HgN/A
8:50 AM59 °FBroken clouds.10 mph88%29.56 "HgN/A
8:20 AM57 °FBroken clouds.13 mph94%29.56 "HgN/A
7:50 AM57 °FLight rain. Broken clouds.12 mph100%29.53 "HgN/A
7:20 AM57 °FRain. Broken clouds.10 mph100%29.53 "Hg4 mi
Weather by CustomWeather, © 2015

See weather overviewHow to use our weather pages